Satellite-Ground Cal/Val Site Overpasses Predictions

Prediction of Satellite NPP Overpassing Cal/Val Site: Antarctic Dome C

Ground Cal/Val Site Location: Latitude: -75.10, Longitude: 123.35; Satellite-Ground Site NADIR distance within 100 km.

Table of predicted overpasses for the next 14.0 days since TLE Epoch: 4/26/2013
Interval Starting Time Ending Time Minimum Distance Time Minimum Distance (km)
1 04/26/2013 07:37:16 04/26/2013 07:37:43 04/26/2013 07:37:29 37.09
2 04/27/2013 07:18:31 04/27/2013 07:18:51 04/27/2013 07:18:41 72.80
3 04/29/2013 15:00:47 04/29/2013 15:01:09 04/29/2013 15:00:58 64.25
4 04/30/2013 14:41:56 04/30/2013 14:42:22 04/30/2013 14:42:09 45.09
5 05/01/2013 07:43:39 05/01/2013 07:43:59 05/01/2013 07:43:49 72.21
6 05/02/2013 07:24:46 05/02/2013 07:25:13 05/02/2013 07:24:59 35.55
7 05/05/2013 14:48:14 05/05/2013 14:48:43 05/05/2013 14:48:28 9.52


NCC Satellite Cal/Val Overpasses Prediction Service
